Oelwein, IA

11:35 AM CST on February 24, 2017 (GMT -0600)
Oelwein Municipal

Weather History for KOLZ - June, 2014

Change the Weather History Date:

Thursday, June 5, 2014

  Actual Average Record
Temperature  
Mean Temperature 65 °F -  
Max Temperature 77 °F 78 °F 93 °F (1977)
Min Temperature 53 °F 54 °F 36 °F (1951)
Growing Degree Days 15 (Base 50)    
Moisture  
Dew Point 55 °F    
Average Humidity 70    
Maximum Humidity 100    
Minimum Humidity 27    
Precipitation  
Precipitation 0.00 in - - ()
Sea Level Pressure  
Sea Level Pressure 29.95 in    
Wind  
Wind Speed 8 mph (SSE)    
Max Wind Speed 18 mph    
Max Gust Speed 24 mph    
Visibility 10 miles    
Events      
Averages and records for this station are not official NWS values.
T = Trace of Precipitation, MM = Missing Value Source: NWS Daily Summary

Daily Weather History Graph

Daily Weather History Graph

Search for Another Location

Airport or City:

Trip Planner

Search our weather history database for the weather conditions in past years. The results will help you decide how hot, cold, wet, or windy it might be!

Date:

Astronomy

Jun. 05, 2014 Rise Set
Actual Time 5:30 AM CDT 8:42 PM CDT
Civil Twilight 4:56 AM CDT 9:16 PM CDT
Nautical Twilight 4:12 AM CDT 10:01 PM CDT
Astronomical Twilight 3:18 AM CDT 10:55 PM CDT
Moon 12:55 PM CDT (6/5) 1:03 AM CDT (6/5)
Length of Visible Light 16h 20m
Length of Day
15h 11m
Waxing Crescent, 49% of the Moon is Illuminated
Jun 5
Waxing Crescent
Jun 5
First Quarter
Jun 12
Full
Jun 19
Last Quarter
Jun 27
New

Hourly Weather History & Observations

Time (CDT) Temp. Dew Point Humidity Pressure Visibility Wind Dir Wind Speed Gust Speed Precip Events Conditions
12:15 AM 59.0 °F 59.0 °F 100% 29.95 in 10.0 mi SE 5.8 mph - N/A   Clear
12:35 AM 59.0 °F 59.0 °F 100% 29.95 in 10.0 mi SE 4.6 mph - N/A   Clear
12:55 AM 59.0 °F 59.0 °F 100% 29.96 in 10.0 mi SE 4.6 mph - N/A   Clear
1:15 AM 59.0 °F 59.0 °F 100% 29.96 in 10.0 mi ESE 4.6 mph - N/A   Clear
1:35 AM 57.2 °F 57.2 °F 100% 29.96 in 10.0 mi ESE 4.6 mph - N/A   Clear
1:55 AM 57.2 °F 57.2 °F 100% 29.96 in 10.0 mi East 5.8 mph - N/A   Clear
2:15 AM 57.2 °F 57.2 °F 100% 29.95 in 10.0 mi ESE 6.9 mph - N/A   Clear
2:35 AM 57.2 °F 57.2 °F 100% 29.95 in 10.0 mi ESE 6.9 mph - N/A   Clear
2:55 AM 57.2 °F 57.2 °F 100% 29.96 in 10.0 mi SE 4.6 mph - N/A   Clear
3:15 AM 57.2 °F 57.2 °F 100% 29.97 in 10.0 mi ESE 3.5 mph - N/A   Clear
3:35 AM 55.4 °F 55.4 °F 100% 29.97 in - SE 3.5 mph - N/A   Unknown
3:55 AM 57.2 °F 57.2 °F 100% 29.98 in 10.0 mi SSE 3.5 mph - N/A   Clear
4:15 AM 57.2 °F 57.2 °F 100% 29.99 in 10.0 mi SE 3.5 mph - N/A   Clear
4:35 AM 57.2 °F 57.2 °F 100% 29.99 in 9.0 mi ESE 3.5 mph - N/A   Clear
4:55 AM 55.4 °F 55.4 °F 100% 29.98 in 6.0 mi SE 4.6 mph - N/A   Clear
5:15 AM 53.6 °F 53.6 °F 100% 29.96 in 4.0 mi ESE 8.1 mph - N/A   Clear
5:35 AM 53.6 °F 53.6 °F 100% 29.97 in 3.0 mi SE 5.8 mph - N/A   Clear
5:55 AM 53.6 °F 53.6 °F 100% 29.98 in 5.0 mi SSE 5.8 mph - N/A   Clear
6:15 AM 55.4 °F 55.4 °F 100% 29.94 in 4.0 mi ESE 8.1 mph - N/A   Clear
6:35 AM 57.2 °F 57.2 °F 100% 29.95 in 5.0 mi SE 5.8 mph - N/A   Clear
6:55 AM 59.0 °F 59.0 °F 100% 29.97 in 8.0 mi SSE 8.1 mph - N/A   Clear
7:15 AM 60.8 °F 60.8 °F 100% 29.97 in 9.0 mi SSE 9.2 mph - N/A   Clear
7:35 AM 60.8 °F 60.8 °F 100% 29.98 in 10.0 mi SSE 11.5 mph - N/A   Clear
7:55 AM 62.6 °F 62.6 °F 100% 29.99 in 10.0 mi SSE 8.1 mph - N/A   Clear
8:35 AM 64.4 °F 60.8 °F 88% 30.00 in 10.0 mi SSE 11.5 mph - N/A   Clear
8:55 AM 66.2 °F 59.0 °F 78% 30.00 in 10.0 mi SSE 13.8 mph - N/A   Clear
9:15 AM 66.2 °F 57.2 °F 73% 30.00 in 10.0 mi SSE 13.8 mph - N/A   Clear
9:35 AM 68.0 °F 57.2 °F 68% 29.99 in 10.0 mi SSE 12.7 mph - N/A   Clear
9:55 AM 68.0 °F 57.2 °F 68% 29.98 in 10.0 mi SE 16.1 mph - N/A   Clear
10:15 AM 69.8 °F 53.6 °F 56% 29.97 in 10.0 mi SSE 15.0 mph - N/A   Clear
10:35 AM 69.8 °F 53.6 °F 56% 29.96 in 10.0 mi South 15.0 mph - N/A   Clear
10:55 AM 71.6 °F 51.8 °F 50% 29.95 in 10.0 mi SSE 17.3 mph - N/A   Clear
11:15 AM 71.6 °F 51.8 °F 50% 29.96 in 10.0 mi SSE 16.1 mph 21.9 mph N/A   Clear
11:35 AM 73.4 °F 37.4 °F 27% 29.96 in 10.0 mi South 18.4 mph - N/A   Clear
11:55 AM 73.4 °F 53.6 °F 50% 29.96 in 10.0 mi South 16.1 mph 21.9 mph N/A   Clear
12:15 PM 73.4 °F 51.8 °F 47% 29.96 in 10.0 mi SSE 12.7 mph 19.6 mph N/A   Clear
12:35 PM 75.2 °F 51.8 °F 44% 29.95 in 10.0 mi SSE 13.8 mph 24.2 mph N/A   Clear
12:55 PM 75.2 °F 50.0 °F 41% 29.94 in 10.0 mi SSE 17.3 mph - N/A   Clear
1:15 PM 75.2 °F 50.0 °F 41% 29.94 in 10.0 mi SE 17.3 mph 24.2 mph N/A   Clear
1:35 PM 77.0 °F 50.0 °F 39% 29.92 in 10.0 mi SE 15.0 mph 23.0 mph N/A   Clear
1:55 PM 77.0 °F 46.4 °F 34% 29.93 in 10.0 mi SSE 18.4 mph - N/A   Clear
2:15 PM 77.0 °F 48.2 °F 36% 29.92 in 10.0 mi SE 15.0 mph - N/A   Clear
2:35 PM 77.0 °F 48.2 °F 36% 29.93 in 10.0 mi SE 17.3 mph - N/A   Clear
2:55 PM 77.0 °F 46.4 °F 34% 29.92 in 10.0 mi SE 10.4 mph 18.4 mph N/A   Clear
3:15 PM 77.0 °F 51.8 °F 41% 29.92 in 10.0 mi SE 10.4 mph 17.3 mph N/A   Clear
3:35 PM 77.0 °F 64.4 °F 65% 29.92 in 10.0 mi SSE 10.4 mph 19.6 mph N/A   Clear
3:55 PM 77.0 °F 42.8 °F 29% 29.92 in 10.0 mi South 11.5 mph 17.3 mph N/A   Clear
4:15 PM 77.0 °F 44.6 °F 32% 29.93 in 10.0 mi SSE 6.9 mph 17.3 mph N/A   Clear
4:35 PM 77.0 °F 44.6 °F 32% 29.93 in 10.0 mi SSW 5.8 mph 15.0 mph N/A   Clear
4:55 PM 77.0 °F 42.8 °F 29% 29.93 in 10.0 mi South 9.2 mph 19.6 mph N/A   Clear
5:15 PM 77.0 °F 55.4 °F 47% 29.93 in 10.0 mi SSE 11.5 mph - N/A   Clear
5:35 PM 77.0 °F 57.2 °F 50% 29.93 in 10.0 mi South 12.7 mph 20.7 mph N/A   Clear
5:55 PM 77.0 °F 55.4 °F 47% 29.93 in 10.0 mi South 16.1 mph - N/A   Clear
6:15 PM 75.2 °F 68.0 °F 78% 29.93 in 10.0 mi SSW 10.4 mph - N/A   Clear
6:35 PM 75.2 °F 62.6 °F 65% 29.93 in 10.0 mi South 11.5 mph - N/A   Clear
6:55 PM 75.2 °F 50.0 °F 41% 29.93 in - South 11.5 mph - N/A   Clear
7:15 PM 73.4 °F 50.0 °F 44% 29.93 in 10.0 mi SSE 8.1 mph 16.1 mph N/A   Partly Cloudy
7:35 PM 73.4 °F 50.0 °F 44% 29.93 in 10.0 mi SSE 9.2 mph - N/A   Clear
7:55 PM 73.4 °F 50.0 °F 44% 29.91 in 10.0 mi SE 9.2 mph - N/A   Clear
8:15 PM 73.4 °F 51.8 °F 47% 29.92 in 10.0 mi South 10.4 mph - N/A   Clear
8:35 PM 71.6 °F 53.6 °F 53% 29.91 in 10.0 mi South 8.1 mph - N/A   Clear
8:55 PM 69.8 °F 55.4 °F 60% 29.91 in 10.0 mi South 9.2 mph - N/A   Partly Cloudy
9:15 PM 69.8 °F 55.4 °F 60% 29.91 in 10.0 mi South 9.2 mph - N/A   Scattered Clouds
9:55 PM 66.2 °F 55.4 °F 68% 29.92 in 10.0 mi South 8.1 mph - N/A   Clear
10:15 PM 66.2 °F 57.2 °F 73% 29.93 in 10.0 mi South 6.9 mph - N/A   Clear
10:35 PM 64.4 °F 57.2 °F 77% 29.93 in 10.0 mi South 5.8 mph - N/A   Clear
10:55 PM 62.6 °F 57.2 °F 82% 29.92 in 10.0 mi South 5.8 mph - N/A   Clear
11:15 PM 62.6 °F 57.2 °F 82% 29.93 in 10.0 mi South 6.9 mph - N/A   Clear
11:35 PM 62.6 °F 57.2 °F 82% 29.94 in 10.0 mi South 6.9 mph - N/A   Clear
11:55 PM 62.6 °F 57.2 °F 82% 29.95 in 10.0 mi SSW 6.9 mph - N/A   Clear